LOT6PK EPWA-EPPO

Flight info

Callsign LOT6PK
Flight time 0h 32m
Altitude 22000
Route LOLSI DCT DIBLO DCT INDIG L980 MASIV
Aircraft A320/M-SDE3FGHIRWY/LB1

Departure

Time 2026-05-07 19:24
Airport Warsaw Chopin Airport (EPWA)

Arrival

Time 2026-05-07 19:56
Airport Poznań-Ławica Airport (EPPO)
Time Latitude Longitude Altitude Speed Heading
2026-05-07 18:46 52.17377 20.97048 353 ft 0 kts 242°
2026-05-07 18:47 52.17376 20.97043 337 ft 0 kts 242°
2026-05-07 19:11 52.17385 20.97071 333 ft 4 kts 242°
2026-05-07 19:11 52.17395 20.97103 336 ft 3 kts 243°
2026-05-07 19:11 52.17399 20.97138 335 ft 4 kts 313°
2026-05-07 19:12 52.17380 20.97158 334 ft 2 kts 332°
2026-05-07 19:12 52.17379 20.97159 334 ft 0 kts 332°
2026-05-07 19:16 52.17390 20.97150 335 ft 6 kts 332°
2026-05-07 19:16 52.17425 20.97120 335 ft 5 kts 332°
2026-05-07 19:16 52.17477 20.97073 337 ft 14 kts 331°
2026-05-07 19:16 52.17571 20.96993 335 ft 16 kts 332°
2026-05-07 19:17 52.17622 20.96888 338 ft 10 kts 255°
2026-05-07 19:17 52.17605 20.96834 336 ft 4 kts 241°
2026-05-07 19:17 52.17588 20.96784 335 ft 8 kts 239°
2026-05-07 19:17 52.17531 20.96633 339 ft 21 kts 238°
2026-05-07 19:18 52.17448 20.96443 338 ft 20 kts 239°
2026-05-07 19:18 52.17340 20.96438 337 ft 16 kts 151°
2026-05-07 19:18 52.17295 20.96479 339 ft 0 kts 151°
2026-05-07 19:19 52.17277 20.96495 337 ft 14 kts 151°
2026-05-07 19:19 52.17168 20.96590 334 ft 18 kts 152°
2026-05-07 19:19 52.17059 20.96686 338 ft 20 kts 151°
2026-05-07 19:20 52.16943 20.96789 336 ft 18 kts 152°
2026-05-07 19:20 52.16836 20.96880 337 ft 19 kts 152°
2026-05-07 19:20 52.16683 20.97021 337 ft 27 kts 139°
2026-05-07 19:20 52.16596 20.97295 334 ft 28 kts 114°
2026-05-07 19:21 52.16514 20.97589 337 ft 29 kts 115°
2026-05-07 19:21 52.16417 20.97793 338 ft 17 kts 184°
2026-05-07 19:21 52.16320 20.97721 336 ft 14 kts 225°
2026-05-07 19:21 52.16329 20.97593 338 ft 6 kts 296°
2026-05-07 19:22 52.16329 20.97591 338 ft 0 kts 296°
2026-05-07 19:23 52.16353 20.97506 337 ft 32 kts 295°
2026-05-07 19:23 52.16556 20.96799 335 ft 101 kts 294°
2026-05-07 19:23 52.16929 20.95491 350 ft 152 kts 296°
2026-05-07 19:23 52.17376 20.93895 899 ft 155 kts 295°
2026-05-07 19:24 52.17824 20.92287 1560 ft 157 kts 296°
2026-05-07 19:24 52.18291 20.90532 1845 ft 182 kts 289°
2026-05-07 19:24 52.18519 20.88408 2238 ft 200 kts 270°
2026-05-07 19:24 52.18418 20.86017 2571 ft 224 kts 264°
2026-05-07 19:25 52.18258 20.83355 3008 ft 248 kts 272°
2026-05-07 19:25 52.18448 20.80514 3786 ft 256 kts 279°
2026-05-07 19:25 52.18767 20.77640 4728 ft 259 kts 281°
2026-05-07 19:25 52.19143 20.74747 5658 ft 262 kts 282°
2026-05-07 19:26 52.19525 20.71828 6583 ft 264 kts 276°
2026-05-07 19:26 52.19426 20.68879 7407 ft 267 kts 255°
2026-05-07 19:26 52.18824 20.66006 8280 ft 269 kts 250°
2026-05-07 19:26 52.18182 20.63117 9165 ft 273 kts 250°
2026-05-07 19:27 52.17527 20.60198 10012 ft 276 kts 250°
2026-05-07 19:27 52.16853 20.57194 10486 ft 293 kts 249°
2026-05-07 19:27 52.16132 20.53965 10708 ft 316 kts 249°
2026-05-07 19:27 52.15545 20.50429 11197 ft 328 kts 260°
2026-05-07 19:28 52.15422 20.46694 11896 ft 334 kts 271°
2026-05-07 19:28 52.15584 20.42902 12643 ft 337 kts 272°
2026-05-07 19:28 52.15745 20.39068 13382 ft 340 kts 271°
2026-05-07 19:28 52.15901 20.35206 14068 ft 344 kts 271°
2026-05-07 19:29 52.16057 20.31302 14707 ft 347 kts 271°
2026-05-07 19:29 52.16213 20.27364 15341 ft 350 kts 271°
2026-05-07 19:29 52.16370 20.23389 15971 ft 353 kts 271°
2026-05-07 19:29 52.16527 20.19381 16599 ft 356 kts 271°
2026-05-07 19:30 52.16683 20.15329 17222 ft 359 kts 270°
2026-05-07 19:30 52.16840 20.11252 17849 ft 362 kts 270°
2026-05-07 19:30 52.16996 20.07189 18447 ft 365 kts 270°
2026-05-07 19:30 52.17156 20.03046 18969 ft 368 kts 270°
2026-05-07 19:31 52.17313 19.98864 19502 ft 372 kts 269°
2026-05-07 19:31 52.17468 19.94642 20028 ft 375 kts 269°
2026-05-07 19:31 52.17624 19.90376 20553 ft 378 kts 269°
2026-05-07 19:31 52.17630 19.86099 21072 ft 377 kts 260°
2026-05-07 19:32 52.17285 19.81859 21601 ft 379 kts 257°
2026-05-07 19:32 52.16902 19.77601 21954 ft 381 kts 256°
2026-05-07 19:32 52.16517 19.73324 22027 ft 382 kts 256°
2026-05-07 19:32 52.16130 19.69037 22027 ft 382 kts 256°
2026-05-07 19:33 52.15745 19.64758 22028 ft 382 kts 256°
2026-05-07 19:33 52.15361 19.60477 22037 ft 382 kts 256°
2026-05-07 19:33 52.14971 19.56188 22032 ft 382 kts 256°
2026-05-07 19:33 52.14580 19.51905 22032 ft 382 kts 256°
2026-05-07 19:34 52.14190 19.47627 22032 ft 382 kts 256°
2026-05-07 19:34 52.13930 19.44790 22031 ft 382 kts 256°
2026-05-07 19:34 52.13535 19.40516 22040 ft 382 kts 256°
2026-05-07 19:34 52.13139 19.36239 22040 ft 382 kts 256°
2026-05-07 19:35 52.12744 19.31970 22042 ft 382 kts 256°
2026-05-07 19:35 52.12348 19.27705 22046 ft 382 kts 256°
2026-05-07 19:35 52.11948 19.23430 22044 ft 381 kts 256°
2026-05-07 19:35 52.11678 19.20550 22049 ft 381 kts 256°
2026-05-07 19:36 52.11484 19.18508 22050 ft 381 kts 256°
2026-05-07 19:36 52.11076 19.14241 22048 ft 381 kts 256°
2026-05-07 19:36 52.10672 19.09986 22057 ft 381 kts 256°
2026-05-07 19:36 52.10267 19.05731 22063 ft 380 kts 256°
2026-05-07 19:37 52.09863 19.01484 22062 ft 380 kts 256°
2026-05-07 19:37 52.09456 18.97237 22057 ft 380 kts 256°
2026-05-07 19:37 52.09047 18.92983 22063 ft 380 kts 256°
2026-05-07 19:37 52.08638 18.88750 22059 ft 379 kts 256°
2026-05-07 19:38 52.08230 18.84571 22068 ft 379 kts 256°
2026-05-07 19:38 52.07817 18.80339 22065 ft 379 kts 257°
2026-05-07 19:38 52.07403 18.76111 22059 ft 379 kts 256°
2026-05-07 19:38 52.06988 18.71884 22065 ft 379 kts 257°
2026-05-07 19:39 52.06572 18.67655 22060 ft 379 kts 257°
2026-05-07 19:39 52.06153 18.63428 22061 ft 379 kts 256°
2026-05-07 19:39 52.05730 18.59202 22059 ft 379 kts 256°
2026-05-07 19:39 52.05305 18.54983 22060 ft 379 kts 256°
2026-05-07 19:40 52.04878 18.50759 22063 ft 379 kts 256°
2026-05-07 19:40 52.04452 18.46537 21515 ft 379 kts 257°
2026-05-07 19:40 52.04051 18.42561 20924 ft 380 kts 257°
2026-05-07 19:40 52.03626 18.38341 20303 ft 379 kts 257°
2026-05-07 19:41 52.03199 18.34115 19820 ft 376 kts 258°
2026-05-07 19:41 52.02781 18.29995 19295 ft 374 kts 258°
2026-05-07 19:41 52.02357 18.25846 18820 ft 371 kts 258°
2026-05-07 19:41 52.01932 18.21723 18343 ft 369 kts 258°
2026-05-07 19:42 52.01507 18.17635 17831 ft 366 kts 258°
2026-05-07 19:42 52.01084 18.13590 17364 ft 361 kts 258°
2026-05-07 19:42 52.00666 18.09591 16904 ft 357 kts 258°
2026-05-07 19:42 52.00253 18.05634 16452 ft 354 kts 258°
2026-05-07 19:43 51.99885 18.01713 16099 ft 348 kts 263°
2026-05-07 19:43 51.99935 17.97840 16056 ft 341 kts 275°
2026-05-07 19:43 52.00332 17.94105 16061 ft 329 kts 277°
2026-05-07 19:43 52.00728 17.90538 16064 ft 314 kts 277°
2026-05-07 19:44 52.01109 17.87081 15913 ft 309 kts 277°
2026-05-07 19:44 52.01651 17.83721 15355 ft 308 kts 285°
2026-05-07 19:44 52.02333 17.80404 14943 ft 309 kts 285°
2026-05-07 19:44 52.03017 17.77107 14608 ft 307 kts 286°
2026-05-07 19:45 52.03733 17.73845 14262 ft 306 kts 292°
2026-05-07 19:45 52.04930 17.71012 13656 ft 306 kts 311°
2026-05-07 19:45 52.06449 17.68593 12950 ft 305 kts 313°
2026-05-07 19:45 52.07969 17.66206 12305 ft 302 kts 313°
2026-05-07 19:46 52.09447 17.63888 12097 ft 298 kts 313°
2026-05-07 19:46 52.10929 17.61558 12065 ft 296 kts 313°
2026-05-07 19:46 52.12408 17.59228 12072 ft 296 kts 313°
2026-05-07 19:46 52.13888 17.56892 12074 ft 296 kts 313°
2026-05-07 19:47 52.15364 17.54555 11867 ft 297 kts 313°
2026-05-07 19:47 52.16845 17.52205 11463 ft 297 kts 313°
2026-05-07 19:47 52.18203 17.49716 10945 ft 292 kts 307°
2026-05-07 19:47 52.19477 17.47163 10309 ft 289 kts 307°
2026-05-07 19:48 52.20720 17.44606 9667 ft 286 kts 306°
2026-05-07 19:48 52.21943 17.42069 9003 ft 283 kts 306°
2026-05-07 19:48 52.23148 17.39558 8353 ft 282 kts 306°
2026-05-07 19:48 52.24350 17.37056 8118 ft 276 kts 307°
2026-05-07 19:49 52.25449 17.34776 7856 ft 274 kts 307°
2026-05-07 19:49 52.26630 17.32332 7404 ft 275 kts 307°
2026-05-07 19:49 52.27813 17.29886 6998 ft 274 kts 307°
2026-05-07 19:49 52.28988 17.27456 6616 ft 272 kts 307°
2026-05-07 19:50 52.30173 17.25006 5950 ft 279 kts 308°
2026-05-07 19:50 52.31390 17.22487 5179 ft 283 kts 308°
2026-05-07 19:50 52.32607 17.19967 4429 ft 283 kts 309°
2026-05-07 19:50 52.33809 17.17476 4104 ft 269 kts 309°
2026-05-07 19:51 52.34915 17.15177 3971 ft 245 kts 310°
2026-05-07 19:51 52.35918 17.13084 3861 ft 223 kts 308°
2026-05-07 19:51 52.36593 17.10925 3710 ft 211 kts 290°
2026-05-07 19:51 52.37032 17.08664 3469 ft 204 kts 290°
2026-05-07 19:52 52.37441 17.06556 3242 ft 185 kts 290°
2026-05-07 19:52 52.37816 17.04635 2969 ft 170 kts 291°
2026-05-07 19:52 52.38171 17.02825 2741 ft 165 kts 291°
2026-05-07 19:52 52.38520 17.01046 2527 ft 168 kts 291°
2026-05-07 19:53 52.38876 16.99226 2305 ft 168 kts 291°
2026-05-07 19:53 52.39231 16.97410 2091 ft 167 kts 291°
2026-05-07 19:53 52.39578 16.95628 1826 ft 158 kts 291°
2026-05-07 19:53 52.39901 16.93966 1615 ft 150 kts 291°
2026-05-07 19:54 52.40213 16.92367 1411 ft 146 kts 291°
2026-05-07 19:54 52.40522 16.90796 1200 ft 144 kts 291°
2026-05-07 19:54 52.40836 16.89257 1012 ft 141 kts 289°
2026-05-07 19:54 52.41123 16.87731 787 ft 140 kts 287°
2026-05-07 19:55 52.41386 16.86211 639 ft 138 kts 291°
2026-05-07 19:55 52.41721 16.84744 464 ft 138 kts 286°
2026-05-07 19:55 52.41979 16.83237 295 ft 136 kts 285°
2026-05-07 19:55 52.42226 16.82041 289 ft 83 kts 283°
2026-05-07 19:56 52.42301 16.81400 294 ft 26 kts 248°
2026-05-07 19:56 52.42288 16.81335 291 ft 12 kts 256°
2026-05-07 19:56 52.42267 16.81189 291 ft 12 kts 244°
2026-05-07 19:56 52.42199 16.81237 288 ft 19 kts 110°
2026-05-07 19:57 52.42153 16.81476 288 ft 26 kts 107°
2026-05-07 19:57 52.42094 16.81785 288 ft 29 kts 108°
2026-05-07 19:57 52.42033 16.82109 288 ft 30 kts 106°
2026-05-07 19:57 52.41969 16.82442 292 ft 31 kts 108°
2026-05-07 19:58 52.41913 16.82741 290 ft 23 kts 107°
2026-05-07 19:58 52.41837 16.82908 292 ft 14 kts 175°
2026-05-07 19:58 52.41751 16.82864 288 ft 12 kts 200°
2026-05-07 19:58 52.41676 16.82854 291 ft 10 kts 174°
2026-05-07 19:59 52.41614 16.82834 288 ft 8 kts 193°
2026-05-07 19:59 52.41570 16.82818 288 ft 0 kts 193°